Wind_Speed
15 13 13 11 9 7 1 10 13 6 5 3 2 5 5 6 5 4 7 15 17 18 17 15 16 17 14 12 10 8 8 7 5 3 3 2 2 1 1 2 3 5 5 6 6 7 8 8 9
15 13 13 10 7 2 9 11 3 11 6 6 5 4 3 7 7 8 12 15 20 22 18 19 18 16 15 14 11 9 7 6 5 3 2 3 3 3 3 4 4 5 6 7 7 7 8 8 8
16 14 14 14 11 6 12 8 15 12 8 6 5 6 8 8 8 8 9 16 19 23 20 20 18 16 15 14 11 10 9 8 7 6 6 6 5 5 6 7 7 8 9 11 12 13 12 12 12
17 16 15 14 10 8 5 9 14 11 9 8 6 8 7 6 6 8 10 2 24 25 21 18 16 16 14 13 12 11 9 10 10 10 10 9 8 8 8 10 12 13 14 14 14 15 15 16 16
16 17 16 16 12 13 20 24 14 12 9 12 8 8 6 4 5 8 10 7 13 17 18 16 16 14 15 14 13 14 13 13 12 12 10 10 11 12 13 15 16 18 18 17 16 16 17 18 18
19 17 15 12 13 17 21 21 18 14 12 15 12 8 8 8 7 7 5 2 10 12 15 17 16 17 13 11 14 17 15 13 12 13 12 13 15 16 16 17 17 18 20 19 19 19 20 20 20
19 21 18 12 12 19 21 18 15 15 14 15 15 11 9 12 11 11 11 8 9 16 14 15 17 17 15 12 18 16 16 14 14 19 18 17 17 17 17 17 18 19 22 22 22 21 22 22 23
16 20 23 16 14 17 24 20 19 14 14 20 16 8 15 14 14 15 17 17 14 19 21 18 18 19 21 18 19 18 17 17 19 16 18 19 18 19 19 18 18 20 20 21 22 21 21 26 25
15 17 17 16 18 17 27 22 23 19 16 15 18 19 17 15 17 19 20 21 18 22 24 23 25 27 19 20 20 19 19 20 21 20 20 19 19 17 17 19 20 18 19 20 19 19 22 21 21
14 15 13 16 21 25 23 22 26 20 19 20 21 20 18 19 20 23 20 18 20 22 30 27 26 25 24 27 25 19 21 23 24 24 24 21 21 19 20 20 19 18 20 18 19 17 18 18 19
16 16 17 22 21 21 18 20 28 21 15 17 23 26 20 22 24 21 20 17 16 20 30 33 33 32 33 32 29 23 24 25 28 26 27 25 22 21 20 18 17 18 17 15 16 16 17 18 18
16 18 21 20 19 18 18 20 19 23 14 20 25 26 21 25 25 19 19 18 19 22 25 32 32 30 34 29 25 25 27 28 29 27 26 24 22 21 18 17 16 17 15 13 13 14 17 19 20
17 18 19 20 18 18 19 18 18 25 22 31 29 27 26 24 23 20 22 21 19 24 26 30 32 35 36 30 27 27 29 31 30 28 25 25 26 22 20 18 16 15 13 13 14 17 17 20 21
20 21 20 20 18 18 18 19 22 21 26 28 28 29 26 25 24 21 23 24 23 23 28 30 31 32 31 31 31 33 32 31 31 30 29 30 28 23 20 18 17 16 14 14 16 17 18 19 20
22 25 26 26 24 24 24 22 22 21 27 28 26 26 25 26 26 23 25 26 26 27 29 31 34 36 37 37 36 34 34 34 35 35 34 32 30 24 21 19 18 17 17 17 17 18 19 19 19
23 25 26 26 30 27 29 24 25 25 28 27 26 26 28 28 28 29 28 29 28 30 29 32 35 36 37 37 37 36 37 36 31 39 32 31 29 25 24 20 20 20 20 20 18 19 19 19 19
24 24 25 22 33 27 30 24 26 29 32 32 29 31 31 32 32 33 30 26 27 29 32 34 35 38 39 37 36 36 37 36 34 34 33 32 31 27 26 24 23 23 23 23 21 22 23 22 20
16 22 23 24 29 28 31 27 25 31 37 29 31 34 33 36 40 35 33 34 34 33 33 32 35 36 39 40 39 38 37 37 36 34 34 34 34 31 30 27 26 25 26 26 25 25 25 25 23
37 32 33 25 26 35 27 30 26 39 35 33 33 32 34 38 37 35 36 36 36 35 33 33 33 35 32 36 39 41 39 38 37 37 37 37 36 34 33 32 29 29 30 29 28 28 28 27 26
37 35 36 34 34 37 32 29 22 42 34 35 31 32 34 37 37 36 34 35 34 32 30 31 32 33 32 31 33 37 38 37 37 38 37 38 38 37 35 35 33 32 34 32 31 31 31 30 29
40 36 36 35 23 35 32 28 36 43 33 35 35 33 34 35 34 33 34 34 34 33 31 30 31 32 32 33 34 33 35 36 35 34 37 39 39 39 37 36 37 35 36 35 34 34 33 33 31
40 33 36 37 31 28 28 30 37 41 35 35 37 36 35 33 32 32 32 33 34 33 34 34 32 32 29 30 29 29 27 31 31 36 38 40 38 39 39 39 39 39 38 38 36 36 35 35 33
40 35 29 30 32 28 29 29 24 40 47 43 38 35 34 34 33 34 35 35 36 36 35 35 34 34 31 30 30 30 29 30 31 36 39 39 39 41 42 41 40 39 39 38 38 36 37 36 33
40 34 28 29 27 33 29 30 32 34 46 49 48 38 35 36 37 38 39 40 40 40 39 38 39 39 38 36 37 35 36 36 37 41 42 45 42 43 43 42 41 40 39 39 39 38 37 35 34
37 25 28 30 31 36 27 31 36 39 37 52 50 33 35 37 39 40 41 42 43 44 44 42 42 45 46 45 44 44 42 42 42 43 45 43 47 47 45 43 41 36 37 37 38 39 39 37 35
27 28 30 34 34 32 32 33 36 46 53 55 46 36 35 39 37 38 39 40 40 41 43 44 45 45 47 49 49 49 48 43 41 42 47 49 48 54 50 44 44 38 34 38 37 38 37 36 36
23 31 34 37 39 40 37 38 50 50 51 52 53 50 48 48 45 42 43 42 43 44 45 45 45 46 47 48 49 49 46 45 44 45 49 50 46 53 45 48 46 38 34 36 35 36 37 37 37
52 42 43 43 41 35 37 39 46 46 45 48 50 53 46 46 49 48 45 44 46 45 47 47 49 50 51 51 51 52 51 48 45 44 46 50 52 54 54 54 46 40 36 37 38 36 36 35 34
42 48 55 50 47 43 41 36 48 37 52 44 52 56 41 42 46 47 46 46 45 46 48 49 49 52 54 53 54 54 53 51 49 47 46 51 56 54 55 53 50 48 39 40 42 42 40 39 35
45 49 46 61 56 46 43 39 51 51 27 54 59 46 43 39 42 46 46 47 47 47 48 50 52 53 55 57 57 56 54 52 52 50 50 50 57 54 57 62 60 58 52 48 43 43 44 44 43
Wind_Direction
193 194 200 201 183 142 171 259 197 247 236 150 95 352 337 333 350 278 253 242 224 219 205 195 185 189 195 187 188 186 180 183 182 150 113 95 114 83 354 351 353 345 351 351 352 353 354 357 356
196 197 196 200 165 145 239 233 161 217 241 249 279 300 319 320 334 314 281 245 230 217 200 192 184 185 191 194 191 201 205 215 227 207 193 195 228 230 256 286 301 312 322 324 327 327 329 325 327
199 202 203 186 161 169 230 215 233 237 243 253 266 270 306 298 306 317 291 259 217 200 193 193 186 187 200 202 203 206 224 232 238 248 256 246 254 257 263 278 289 299 305 313 317 318 316 313 315
201 205 210 201 196 210 224 224 236 244 257 258 259 281 308 281 301 325 358 353 184 183 178 191 196 195 205 220 223 225 232 245 259 262 267 263 267 265 277 291 298 301 304 304 307 310 311 313 317
204 208 211 211 209 229 233 243 252 243 242 265 256 260 269 318 333 354 10 142 169 181 177 189 200 204 217 228 242 247 239 248 265 272 267 267 278 288 296 300 302 304 304 305 306 307 310 311 314
208 214 213 234 251 237 240 241 239 245 247 261 273 256 260 291 308 339 335 239 201 198 196 196 204 220 216 232 253 253 258 266 276 278 276 282 287 291 293 294 298 301 301 302 304 307 306 307 308
212 213 213 225 242 246 245 252 237 224 241 262 261 273 273 280 284 294 300 268 244 213 218 222 221 217 234 256 261 254 268 270 289 295 292 290 289 288 289 291 296 299 299 300 301 302 305 308 307
219 220 212 239 226 241 245 242 249 243 239 249 269 273 264 277 279 285 294 289 252 238 230 227 236 229 246 245 248 260 263 270 292 296 291 289 289 290 286 290 298 300 299 302 302 302 305 309 307
233 231 225 241 236 244 253 235 241 253 249 251 252 259 277 277 280 283 282 277 266 239 230 232 236 250 229 241 246 251 264 270 287 291 283 284 279 291 299 291 296 296 300 305 314 309 309 305 306
236 236 228 233 236 228 256 239 246 244 253 262 264 264 269 278 281 287 278 265 257 244 231 228 241 246 245 245 238 257 271 276 281 287 285 288 285 286 290 294 293 292 306 297 308 312 313 311 308
239 236 224 245 252 245 255 249 248 241 249 263 267 266 265 278 284 280 271 271 258 248 240 233 235 240 245 249 261 267 272 273 275 282 286 291 290 293 292 290 295 294 298 299 302 306 311 312 314
243 239 250 249 251 254 250 240 250 239 229 243 246 254 281 278 278 272 262 271 266 255 248 244 243 252 258 258 272 267 268 267 269 275 284 288 292 292 289 288 287 288 294 294 297 303 307 311 313
252 253 253 252 251 246 245 246 241 242 226 245 248 267 272 267 266 263 254 260 258 258 255 250 246 249 258 269 271 277 278 269 269 272 276 284 290 284 279 286 288 283 280 281 293 297 302 305 309
262 262 262 260 256 253 246 237 237 237 239 247 253 261 259 255 255 255 255 257 252 254 253 255 255 257 258 258 267 271 273 268 268 270 273 279 285 282 273 277 279 278 278 281 287 294 300 304 312
266 264 262 263 261 257 255 249 249 238 244 249 245 247 257 247 251 246 246 249 252 249 253 255 255 256 259 263 268 269 267 267 266 271 276 277 277 278 273 270 272 272 276 279 283 292 295 302 306
262 264 267 269 264 261 259 257 258 252 247 252 247 248 250 251 249 251 246 246 250 256 257 259 262 263 264 265 266 265 263 263 264 272 270 272 273 271 272 270 272 274 276 280 285 290 295 297 300
270 266 267 261 268 267 266 261 258 262 254 257 259 254 254 259 256 251 258 256 254 254 257 260 262 266 268 266 264 264 264 266 265 268 269 269 270 269 269 270 270 273 276 280 284 289 291 294 299
262 272 266 249 264 264 267 263 257 247 260 262 258 258 258 259 257 261 261 260 259 257 257 258 260 259 261 266 267 267 264 266 268 268 266 266 269 270 271 271 272 272 276 278 281 283 286 290 295
259 265 264 256 257 266 260 265 256 253 263 259 257 255 257 257 255 258 260 260 262 262 258 260 260 261 262 261 263 265 266 267 268 270 270 270 266 267 268 269 268 270 274 277 279 282 283 287 292
268 262 261 261 260 263 260 257 243 258 262 261 258 254 253 255 256 255 256 258 261 263 259 257 256 258 261 264 264 263 264 265 265 265 267 266 266 266 267 269 268 269 273 276 279 283 285 288 291
269 265 262 260 257 259 254 246 237 260 262 261 258 255 251 250 253 251 250 251 254 258 260 258 260 258 257 260 263 265 268 268 265 263 262 263 264 264 265 267 268 269 272 275 279 281 285 286 287
270 269 262 257 252 250 267 248 253 272 267 257 255 252 255 254 253 253 251 251 253 256 263 267 265 260 256 258 262 265 269 272 275 272 266 262 262 264 264 264 267 270 272 275 277 281 281 284 285
268 261 254 260 252 254 241 256 232 263 268 260 259 259 255 255 255 255 256 257 257 258 259 261 259 252 250 254 258 262 263 264 267 270 271 268 266 267 266 266 267 269 272 274 276 278 280 281 281
269 268 258 252 254 252 249 234 250 245 262 274 265 261 260 255 251 251 254 257 259 260 257 252 252 253 254 256 259 257 260 260 259 263 267 271 270 268 270 272 272 274 275 275 275 276 277 277 276
271 256 252 259 254 257 250 246 245 247 251 252 261 251 254 255 255 256 258 256 255 254 256 256 250 249 252 255 256 257 256 256 254 257 263 264 271 270 271 271 273 277 280 280 279 276 275 274 273
252 258 256 255 255 257 250 235 240 236 243 245 250 256 256 258 258 258 259 260 259 256 254 254 253 251 251 252 255 256 256 252 251 251 254 259 262 272 271 269 270 272 278 278 278 277 274 272 269
239 241 267 264 254 248 248 255 240 240 241 247 251 254 262 262 260 258 256 256 258 258 258 257 257 257 256 255 255 255 255 255 250 250 256 254 259 263 258 270 271 269 269 273 274 273 272 269 267
254 256 254 247 261 249 245 247 268 269 253 247 242 246 256 261 260 259 260 261 263 264 263 260 258 257 257 258 258 259 261 258 254 250 251 250 248 256 255 269 269 271 267 265 266 267 267 266 268
255 264 261 242 240 256 230 231 241 239 248 250 261 257 254 256 259 261 262 266 268 267 265 264 260 257 257 257 258 258 259 260 258 252 252 251 248 255 260 254 266 269 265 268 267 267 265 268 269
261 264 269 240 233 232 246 233 238 245 212 239 246 235 255 255 262 262 262 262 263 265 265 262 259 256 256 256 256 258 259 257 256 254 252 254 248 252 256 257 263 263 265 263 264 265 267 269 272
Height
5912 5914 5916 5918 5925 5927 5932 5933 5929 5931 5928 5928 5928 5928 5927 5926 5925 5927 5924 5922 5921 5922 5923 5924 5925 5925 5928 5929 5929 5930 5930 5930 5929 5929 5928 5927 5927 5927 5927 5927 5926 5926 5925 5924 5924 5923 5922 5921 5920
5912 5914 5916 5919 5924 5930 5935 5930 5933 5931 5926 5927 5927 5927 5926 5925 5924 5923 5921 5920 5919 5920 5922 5922 5924 5925 5926 5927 5927 5929 5929 5930 5929 5929 5928 5927 5926 5925 5925 5925 5925 5924 5924 5923 5923 5922 5921 5920 5919
5911 5914 5916 5919 5923 5931 5925 5927 5927 5926 5925 5926 5926 5926 5925 5924 5923 5921 5918 5914 5916 5918 5920 5922 5924 5925 5926 5926 5927 5927 5928 5928 5928 5927 5927 5926 5925 5924 5924 5923 5923 5923 5922 5922 5922 5921 5920 5919 5918
5911 5914 5916 5919 5923 5931 5929 5925 5925 5926 5926 5925 5925 5925 5925 5923 5922 5919 5916 5911 5912 5915 5919 5923 5924 5924 5926 5927 5927 5926 5926 5927 5927 5927 5927 5926 5925 5924 5923 5923 5922 5921 5921 5921 5920 5920 5919 5917 5917
5910 5912 5915 5918 5921 5928 5924 5921 5924 5925 5927 5924 5925 5924 5924 5922 5921 5920 5918 5917 5918 5919 5920 5922 5923 5924 5925 5925 5926 5925 5925 5926 5926 5926 5926 5925 5924 5923 5923 5922 5921 5921 5920 5919 5919 5918 5917 5915 5914
5908 5911 5914 5919 5923 5924 5920 5919 5921 5924 5925 5923 5924 5923 5922 5922 5921 5920 5920 5920 5920 5921 5921 5921 5922 5923 5923 5923 5924 5924 5924 5924 5924 5925 5925 5924 5923 5923 5922 5921 5920 5919 5918 5917 5917 5916 5915 5913 5912
5905 5909 5912 5918 5924 5921 5918 5918 5919 5921 5923 5923 5922 5922 5921 5920 5920 5919 5919 5920 5920 5919 5920 5920 5921 5921 5921 5922 5923 5922 5923 5922 5923 5923 5923 5921 5921 5921 5920 5920 5919 5917 5916 5915 5914 5913 5913 5911 5910
5903 5904 5908 5914 5918 5919 5913 5916 5916 5918 5920 5918 5919 5922 5917 5918 5918 5917 5917 5917 5918 5919 5918 5918 5919 5919 5918 5920 5920 5920 5920 5920 5920 5920 5919 5919 5919 5919 5918 5918 5917 5915 5914 5913 5912 5911 5910 5909 5907
5901 5903 5905 5912 5914 5917 5909 5913 5913 5915 5916 5916 5915 5914 5915 5916 5915 5915 5914 5913 5914 5915 5915 5915 5915 5914 5914 5916 5916 5916 5916 5916 5917 5917 5916 5916 5917 5917 5916 5915 5915 5914 5911 5911 5909 5908 5907 5906 5904
5899 5901 5904 5910 5911 5909 5906 5909 5910 5913 5913 5912 5911 5911 5912 5912 5912 5910 5910 5910 5910 5910 5911 5911 5911 5911 5911 5912 5911 5912 5912 5912 5913 5913 5913 5913 5914 5913 5913 5912 5911 5911 5909 5908 5907 5904 5903 5903 5902
5896 5898 5900 5900 5901 5903 5904 5905 5906 5910 5912 5911 5908 5905 5908 5908 5907 5907 5906 5906 5906 5907 5907 5907 5907 5906 5907 5908 5908 5909 5908 5909 5909 5910 5909 5910 5909 5909 5908 5909 5909 5909 5908 5906 5904 5902 5900 5900 5900
5893 5894 5894 5896 5897 5898 5900 5901 5901 5905 5911 5911 5908 5903 5904 5904 5902 5903 5903 5903 5903 5904 5904 5904 5905 5905 5904 5904 5905 5906 5905 5905 5906 5906 5906 5906 5906 5905 5906 5905 5906 5906 5905 5903 5902 5900 5898 5898 5897
5890 5891 5891 5892 5893 5894 5895 5897 5898 5898 5904 5900 5901 5901 5900 5900 5899 5900 5899 5899 5900 5900 5900 5901 5902 5902 5902 5901 5902 5902 5902 5901 5902 5902 5903 5902 5903 5903 5903 5903 5902 5902 5902 5901 5899 5898 5896 5895 5893
5887 5887 5888 5888 5890 5890 5891 5892 5892 5894 5895 5894 5896 5896 5895 5895 5896 5896 5896 5896 5896 5896 5897 5897 5897 5898 5898 5898 5898 5898 5898 5898 5898 5899 5899 5899 5899 5899 5899 5899 5899 5899 5899 5898 5897 5896 5895 5893 5890
5883 5883 5883 5884 5885 5886 5886 5888 5888 5890 5890 5889 5891 5891 5891 5890 5890 5892 5891 5891 5891 5891 5891 5891 5891 5892 5893 5893 5894 5894 5893 5893 5894 5894 5895 5895 5895 5895 5895 5896 5896 5896 5896 5895 5894 5893 5893 5891 5889
5878 5878 5878 5879 5878 5881 5880 5884 5885 5885 5885 5885 5886 5887 5886 5886 5885 5885 5885 5886 5887 5887 5888 5888 5887 5887 5888 5889 5889 5889 5888 5889 5889 5889 5889 5890 5890 5890 5891 5892 5892 5892 5892 5892 5891 5891 5889 5889 5886
5873 5874 5874 5875 5872 5874 5874 5878 5879 5877 5879 5880 5882 5882 5882 5880 5880 5880 5880 5883 5883 5883 5883 5883 5883 5883 5883 5883 5883 5884 5884 5884 5885 5884 5883 5884 5884 5885 5886 5888 5888 5888 5888 5887 5887 5887 5886 5885 5884
5871 5871 5867 5870 5867 5868 5867 5870 5873 5870 5870 5874 5875 5876 5877 5875 5872 5875 5876 5876 5876 5877 5877 5877 5876 5877 5877 5877 5877 5878 5878 5878 5877 5878 5878 5878 5879 5880 5881 5882 5883 5884 5883 5883 5883 5883 5882 5881 5882
5860 5862 5861 5862 5863 5859 5863 5862 5865 5860 5862 5864 5866 5867 5867 5866 5866 5868 5868 5868 5867 5868 5869 5870 5870 5869 5870 5871 5871 5871 5872 5872 5872 5872 5872 5873 5874 5875 5876 5876 5878 5878 5879 5879 5878 5878 5878 5877 5877
5853 5853 5853 5854 5853 5852 5855 5856 5858 5850 5855 5855 5857 5857 5858 5857 5857 5860 5861 5860 5860 5860 5862 5862 5863 5863 5864 5864 5865 5865 5866 5866 5867 5866 5867 5867 5868 5869 5870 5871 5872 5873 5872 5874 5873 5873 5873 5873 5872
5842 5845 5846 5846 5847 5842 5846 5848 5845 5841 5846 5847 5847 5848 5848 5848 5849 5851 5852 5852 5853 5854 5854 5855 5856 5856 5857 5857 5857 5858 5858 5858 5859 5859 5860 5861 5862 5863 5864 5865 5865 5867 5866 5867 5867 5868 5867 5867 5867
5833 5835 5835 5837 5836 5838 5837 5840 5837 5834 5837 5838 5836 5837 5838 5840 5841 5842 5843 5844 5845 5846 5847 5847 5849 5850 5850 5851 5851 5851 5852 5851 5851 5850 5851 5853 5855 5856 5858 5859 5859 5859 5860 5860 5861 5861 5861 5861 5861
5826 5826 5827 5826 5826 5829 5833 5832 5839 5829 5823 5824 5828 5830 5831 5832 5833 5834 5836 5836 5837 5838 5840 5840 5841 5842 5844 5844 5845 5845 5846 5846 5845 5843 5843 5844 5846 5847 5848 5850 5851 5852 5852 5854 5853 5854 5854 5855 5856
5814 5817 5818 5818 5821 5820 5823 5828 5829 5825 5816 5815 5813 5821 5823 5823 5824 5825 5826 5827 5828 5829 5831 5832 5833 5834 5835 5836 5837 5838 5839 5839 5839 5837 5836 5835 5836 5838 5839 5841 5842 5844 5845 5846 5846 5846 5847 5848 5848
5805 5810 5810 5813 5812 5809 5817 5818 5820 5816 5812 5801 5801 5810 5813 5814 5814 5815 5816 5817 5819 5819 5820 5822 5824 5824 5825 5826 5827 5828 5829 5829 5830 5830 5829 5830 5827 5828 5831 5831 5833 5835 5836 5837 5838 5838 5839 5839 5840
5804 5801 5803 5804 5806 5807 5808 5805 5805 5797 5796 5796 5799 5798 5803 5805 5806 5805 5806 5806 5807 5809 5810 5812 5813 5814 5815 5815 5816 5816 5817 5819 5820 5821 5820 5819 5821 5818 5821 5824 5824 5826 5828 5828 5829 5830 5831 5832 5833
5790 5791 5796 5789 5793 5794 5794 5793 5783 5786 5789 5788 5788 5790 5793 5795 5796 5796 5795 5797 5797 5798 5799 5801 5802 5804 5804 5805 5805 5805 5807 5808 5810 5810 5810 5812 5812 5800 5816 5814 5814 5817 5819 5820 5821 5822 5823 5825 5825
5778 5781 5779 5783 5774 5774 5782 5787 5778 5775 5776 5775 5775 5778 5781 5784 5784 5784 5785 5787 5787 5788 5788 5791 5791 5791 5792 5793 5793 5793 5795 5797 5798 5799 5800 5801 5803 5800 5800 5803 5806 5807 5809 5811 5812 5814 5816 5817 5818
5763 5766 5763 5767 5767 5763 5766 5778 5759 5764 5767 5763 5763 5765 5769 5771 5772 5773 5773 5774 5775 5776 5775 5776 5778 5778 5778 5780 5780 5781 5782 5784 5787 5788 5790 5790 5792 5792 5793 5785 5795 5796 5799 5800 5802 5804 5807 5809 5809
5753 5752 5751 5747 5754 5755 5755 5754 5754 5754 5746 5747 5752 5753 5757 5761 5761 5761 5761 5762 5762 5762 5762 5763 5763 5763 5763 5765 5767 5767 5769 5771 5773 5775 5777 5780 5780 5781 5781 5780 5781 5784 5787 5790 5791 5793 5795 5798 5799